DW6791 Weather Reports


time (UTC)temp
F
wind
direction
speed
knots
gust
knots
rain 1hr
in
rain 24hr
in
rain mn
in
humidity
%
barometer
mb
20260505140503 71 250 3.5 8.7 0.00 0.00 0.00 87 1008.8
20260505125003 69 246 0.9 4.3 0.00 0.00 0.00 87 1008.6
20260505124524 69 241 0.9 9.6 0.00 0.00 0.00 88 1008.5
20260505124003 69 232 1.7 9.6 0.00 0.00 0.00 88 1008.5
20260505123503 69 238 1.7 7.8 0.00 0.00 0.00 88 1008.4
20260505123003 69 243 0.9 7.8 0.00 0.00 0.00 87 1008.2
20260505122503 69 229 0.9 6.1 0.00 0.00 0.00 87 1008.2
20260505122003 69 249 1.7 7.8 0.00 0.00 0.00 87 1008.1
20260505121503 69 248 1.7 7.8 0.00 0.00 0.00 87 1008.0
20260505121003 69 245 2.6 8.7 0.00 0.00 0.00 87 1008.2
20260505120503 69 255 2.6 8.7 0.00 0.00 0.00 87 1008.2
20260505120004 69 264 2.6 7.0 0.00 0.00 0.00 87 1008.2
20260505115503 69 252 2.6 7.0 0.00 0.00 0.00 87 1008.1
20260505115003 69 245 2.6 7.0 0.00 0.00 0.00 87 1008.1
20260505114503 69 247 2.6 7.8 0.00 0.00 0.00 87 1008.0
20260505114003 69 248 1.7 7.8 0.00 0.00 0.00 87 1008.1
20260505113503 69 249 1.7 7.0 0.00 0.00 0.00 87 1008.0
20260505113003 69 250 1.7 7.0 0.00 0.00 0.00 87 1007.9
20260505112503 69 253 1.7 7.8 0.00 0.00 0.00 87 1008.0
20260505112003 68 251 1.7 7.8 0.00 0.00 0.00 87 1007.9
20260505111503 68 249 1.7 7.0 0.00 0.00 0.00 87 1008.0
20260505111003 68 254 1.7 7.8 0.00 0.00 0.00 87 1008.0
20260505110503 68 257 1.7 7.8 0.00 0.00 0.00 87 1007.9
20260505102004 67 224 0.0 3.5 0.00 0.00 0.00 88 1007.6
20260505101503 67 109 0.0 5.2 0.00 0.00 0.00 88 1007.6
20260505101003 67 103 0.0 5.2 0.00 0.00 0.00 88 1007.6
20260505100503 67 87 0.0 7.8 0.00 0.00 0.00 88 1007.7
20260505100003 67 105 0.0 7.8 0.00 0.00 0.00 88 1007.8
20260505095503 67 139 0.0 3.5 0.00 0.00 0.00 88 1007.9
20260505095003 67 118 0.0 3.5 0.00 0.00 0.00 88 1008.0
20260505094503 67 106 0.0 5.2 0.00 0.00 0.00 88 1008.0
20260505094003 66 107 0.0 5.2 0.00 0.00 0.00 88 1008.2
20260505093503 66 119 0.0 3.5 0.00 0.00 0.00 88 1008.1
20260505093003 66 121 0.0 3.5 0.00 0.00 0.00 88 1008.2
20260505092503 66 111 0.0 0.9 0.00 0.00 0.00 88 1008.3
20260505092003 66 87 0.0 0.9 0.00 0.00 0.00 88 1008.3
20260505091503 66 87 0.0 0.9 0.00 0.00 0.00 88 1008.3
20260505091003 66 109 0.0 0.9 0.00 0.00 0.00 88 1008.5
20260505090503 66 109 0.0 0.9 0.00 0.00 0.00 87 1008.5
20260505090003 66 261 0.0 1.7 0.00 0.00 0.00 87 1008.6
20260505085503 66 159 0.0 3.5 0.00 0.00 0.00 87 1008.5
20260505085003 66 134 0.0 3.5 0.00 0.00 0.00 87 1008.6
20260505084503 66 128 0.0 1.7 0.00 0.00 0.00 87 1008.6
20260505084003 66 0 0.0 0.0 0.00 0.00 0.00 87 1008.5
20260505083503 66 116 0.0 0.9 0.00 0.00 0.00 87 1008.6
20260505083003 66 116 0.0 0.9 0.00 0.00 0.00 87 1008.6
20260505082503 66 116 0.0 0.9 0.00 0.00 0.00 87 1008.7
20260505082003 66 111 0.0 2.6 0.00 0.00 0.00 87 1008.8
20260505081503 66 111 0.0 2.6 0.00 0.00 0.00 87 1008.6
20260505081003 66 106 0.0 0.9 0.00 0.00 0.00 87 1008.6
20260505080503 66 108 0.0 0.9 0.00 0.00 0.00 86 1008.8
20260505080003 66 131 0.0 1.7 0.00 0.00 0.00 86 1008.9
20260505075503 66 198 0.0 1.7 0.00 0.00 0.00 86 1008.8
20260505075003 66 222 0.0 1.7 0.00 0.00 0.00 86 1008.7
20260505074503 66 208 0.0 1.7 0.00 0.00 0.00 86 1009.0
20260505074003 66 211 0.0 1.7 0.00 0.00 0.00 85 1009.0
20260505073503 66 233 0.0 1.7 0.00 0.00 0.00 85 1009.0
20260505073003 66 270 0.0 2.6 0.00 0.00 0.00 85 1009.0
20260505072503 66 271 0.0 2.6 0.00 0.00 0.00 85 1008.9
20260505072003 66 262 0.0 2.6 0.00 0.00 0.00 84 1009.0
20260505071503 67 271 0.0 2.6 0.00 0.00 0.00 84 1009.2
20260505071003 67 272 0.0 2.6 0.00 0.00 0.00 84 1009.0
20260505070503 67 228 0.0 1.7 0.00 0.00 0.00 84 1009.0
20260505070004 67 221 0.9 2.6 0.00 0.00 0.00 84 1009.1
20260505065503 67 218 0.9 3.5 0.00 0.00 0.00 83 1009.2
20260505065003 67 222 0.0 5.2 0.00 0.00 0.00 83 1009.3
20260505064503 68 241 0.9 7.0 0.00 0.00 0.00 83 1009.4
20260505064003 68 261 0.9 7.0 0.00 0.00 0.00 83 1009.4
20260505063503 68 254 0.9 6.1 0.00 0.00 0.00 82 1009.4
20260505063003 68 245 1.7 8.7 0.00 0.00 0.00 82 1009.5
20260505062503 68 253 1.7 8.7 0.00 0.00 0.00 82 1009.6
20260505062003 68 248 1.7 7.0 0.00 0.00 0.00 82 1009.6
20260505061503 68 245 1.7 7.8 0.00 0.00 0.00 82 1009.5
20260505061003 68 248 1.7 7.8 0.00 0.00 0.00 82 1009.5
20260505060503 68 251 1.7 6.1 0.00 0.00 0.00 81 1009.6
20260505060003 68 255 1.7 6.1 0.00 0.00 0.00 81 1009.6
20260505055503 68 228 0.9 5.2 0.00 0.00 0.00 81 1009.4
20260505055003 68 163 0.9 4.3 0.00 0.00 0.00 81 1009.3
20260505054524 68 179 1.7 5.2 0.00 0.00 0.00 81 1009.5
20260505054003 68 230 1.7 6.1 0.00 0.00 0.00 80 1009.6
20260505053524 68 235 1.7 6.1 0.00 0.00 0.00 80 1009.7
20260505053003 68 173 1.7 6.1 0.00 0.00 0.00 80 1009.8
20260505052503 68 234 0.9 6.1 0.00 0.00 0.00 80 1009.7
20260505052003 68 262 0.9 5.2 0.00 0.00 0.00 80 1009.7
20260505051503 68 163 1.7 7.0 0.00 0.00 0.00 80 1009.6
20260505051003 69 117 1.7 7.0 0.00 0.00 0.00 79 1009.7
20260505050503 69 113 1.7 8.7 0.00 0.00 0.00 79 1009.7
20260505041503 70 169 1.7 7.0 0.00 0.00 0.00 76 1009.9
20260505041003 70 239 1.7 7.0 0.00 0.00 0.00 76 1010.0
20260505040503 70 238 1.7 8.7 0.00 0.00 0.00 76 1010.0
20260505040004 70 238 2.6 9.6 0.00 0.00 0.00 76 1010.1
20260505035524 70 179 2.6 9.6 0.00 0.00 0.00 75 1010.0
20260505035003 70 161 2.6 7.8 0.00 0.00 0.00 75 1010.0
20260505034503 70 189 2.6 7.8 0.00 0.00 0.00 75 1009.9
20260505034003 70 113 1.7 6.1 0.00 0.00 0.00 75 1010.0
20260505033503 70 104 1.7 6.1 0.00 0.00 0.00 75 1009.9
20260505033003 70 121 1.7 7.0 0.00 0.00 0.00 75 1009.9
20260505032503 70 130 1.7 7.0 0.00 0.00 0.00 74 1009.9
20260505032003 70 285 1.7 7.0 0.00 0.00 0.00 74 1010.0
20260505031503 70 306 1.7 8.7 0.00 0.00 0.00 74 1009.9
20260505031003 71 98 2.6 9.6 0.00 0.00 0.00 74 1009.8
20260505030524 70 100 1.7 9.6 0.00 0.00 0.00 74 1009.8
20260505030003 71 96 0.9 6.1 0.00 0.00 0.00 74 1009.9
20260505025503 71 132 1.7 7.8 0.00 0.00 0.00 73 1010.1
20260505025003 71 159 1.7 7.8 0.00 0.00 0.00 73 1010.2
20260505024503 71 170 1.7 6.1 0.00 0.00 0.00 72 1010.2
20260505024003 71 127 1.7 9.6 0.00 0.00 0.00 72 1010.1
20260505023503 71 148 2.6 9.6 0.00 0.00 0.00 72 1010.1
20260505023003 71 131 1.7 6.1 0.00 0.00 0.00 72 1010.1
20260505022503 71 125 1.7 7.0 0.00 0.00 0.00 72 1010.0
20260505022003 72 182 1.7 8.7 0.00 0.00 0.00 71 1010.0
20260505021503 72 214 1.7 8.7 0.00 0.00 0.00 71 1009.9
20260505021024 72 133 1.7 7.8 0.00 0.00 0.00 71 1009.8
20260505020524 72 97 1.7 7.8 0.00 0.00 0.00 71 1009.6
20260505020003 72 154 1.7 7.8 0.00 0.00 0.00 70 1009.6
20260505015503 72 272 1.7 7.8 0.00 0.00 0.00 70 1009.6
20260505015003 72 293 1.7 6.1 0.00 0.00 0.00 70 1009.6
20260505014503 72 222 0.9 4.3 0.00 0.00 0.00 70 1009.4
20260505014024 72 231 0.9 3.5 0.00 0.00 0.00 70 1009.3
20260505013524 72 248 0.0 2.6 0.00 0.00 0.00 69 1009.3
20260505013003 73 266 0.9 4.3 0.00 0.00 0.00 68 1009.3
20260505012503 73 326 0.9 4.3 0.00 0.00 0.00 68 1009.3
20260505012003 73 312 0.9 3.5 0.00 0.00 0.00 68 1009.2
20260505011524 73 275 0.9 4.3 0.00 0.00 0.00 68 1009.1
20260505011003 73 137 0.9 5.2 0.00 0.00 0.00 68 1009.1
20260505010503 73 134 0.9 6.1 0.00 0.00 0.00 67 1009.1
20260505010003 74 158 0.9 6.1 0.00 0.00 0.00 67 1009.4
20260505005503 74 217 0.9 2.6 0.00 0.00 0.00 66 1009.5
20260505005003 74 210 0.0 2.6 0.00 0.00 0.00 65 1009.4
20260505004503 74 138 0.9 2.6 0.00 0.00 0.00 65 1009.4
20260505004003 75 218 0.9 7.0 0.00 0.00 0.00 64 1009.4
20260505003503 75 215 1.7 7.0 0.00 0.00 0.00 63 1009.4
20260505003003 75 192 0.9 7.0 0.00 0.00 0.00 63 1009.4
20260505002503 76 232 1.7 7.8 0.00 0.00 0.00 62 1009.4
20260505002003 76 248 1.7 7.8 0.00 0.00 0.00 62 1009.3
20260505001503 76 235 0.9 3.5 0.00 0.00 0.00 62 1009.4
20260505001003 76 158 0.9 7.8 0.00 0.00 0.00 61 1009.5
20260505000503 76 182 1.7 7.8 0.00 0.00 0.00 60 1009.6
20260505000003 77 151 1.7 7.8 0.00 0.00 0.00 61 1009.6
20260504235503 77 127 2.6 9.6 0.00 0.00 0.00 60 1009.5
20260504235003 77 141 2.6 9.6 0.00 0.00 0.00 59 1009.6
20260504234503 78 187 1.7 7.0 0.00 0.00 0.00 58 1009.7
20260504234003 78 101 2.6 9.6 0.00 0.00 0.00 57 1009.7
20260504233503 78 117 3.5 9.6 0.00 0.00 0.00 57 1009.7
20260504233003 78 132 2.6 8.7 0.00 0.00 0.00 58 1009.6
20260504232503 79 127 1.7 7.0 0.00 0.00 0.00 57 1009.7
20260504232003 79 101 1.7 7.0 0.00 0.00 0.00 56 1009.8
20260504231503 79 136 1.7 7.0 0.00 0.00 0.00 58 1009.9
20260504231003 79 164 1.7 7.8 0.00 0.00 0.00 57 1010.0
20260504230524 79 167 1.7 7.8 0.00 0.00 0.00 55 1010.0
20260504230003 79 239 2.6 7.8 0.00 0.00 0.00 54 1009.9
20260504225524 80 253 2.6 7.8 0.00 0.00 0.00 54 1010.0
20260504225003 79 254 2.6 10.4 0.00 0.00 0.00 54 1010.1
20260504224503 79 214 3.5 11.3 0.00 0.00 0.00 53 1010.2
20260504224003 80 165 3.5 11.3 0.00 0.00 0.00 53 1010.2
20260504223503 80 125 3.5 10.4 0.00 0.00 0.00 52 1010.1
20260504223003 80 149 3.5 10.4 0.00 0.00 0.00 52 1010.2
20260504222503 80 178 2.6 7.0 0.00 0.00 0.00 51 1010.1
20260504222003 80 197 3.5 12.2 0.00 0.00 0.00 51 1010.1
20260504221503 80 135 4.3 12.2 0.00 0.00 0.00 51 1010.7
20260504221003 80 209 4.3 10.4 0.00 0.00 0.00 50 1010.5
20260504220503 80 251 4.3 9.6 0.00 0.00 0.00 50 1010.8
20260504220003 80 249 3.5 8.7 0.00 0.00 0.00 50 1010.7
20260504215503 80 249 3.5 10.4 0.00 0.00 0.00 49 1010.8
20260504215003 80 264 2.6 10.4 0.00 0.00 0.00 50 1010.9
20260504214503 80 305 2.6 9.6 0.00 0.00 0.00 47 1010.8
20260504214004 80 268 3.5 10.4 0.00 0.00 0.00 49 1010.8
20260504213503 80 257 3.5 10.4 0.00 0.00 0.00 49 1011.0
20260504213003 80 262 3.5 9.6 0.00 0.00 0.00 48 1011.1
20260504212503 80 244 2.6 7.8 0.00 0.00 0.00 51 1011.2
20260504212003 80 169 2.6 12.2 0.00 0.00 0.00 47 1011.2
20260504211524 80 149 2.6 12.2 0.00 0.00 0.00 47 1011.3
20260504211003 80 129 2.6 8.7 0.00 0.00 0.00 49 1011.4
20260504210503 80 139 3.5 8.7 0.00 0.00 0.00 46 1011.3
20260504210003 80 159 3.5 8.7 0.00 0.00 0.00 48 1011.4
20260504205524 80 151 2.6 8.7 0.00 0.00 0.00 44 1011.5
20260504205003 81 173 1.7 6.1 0.00 0.00 0.00 47 1011.5
20260504204503 80 144 2.6 9.6 0.00 0.00 0.00 45 1011.6
20260504204003 80 130 3.5 9.6 0.00 0.00 0.00 45 1011.8
20260504203504 80 166 3.5 9.6 0.00 0.00 0.00 46 1011.8
20260504203003 80 251 4.3 9.6 0.00 0.00 0.00 46 1011.9
20260504202503 80 259 5.2 10.4 0.00 0.00 0.00 42 1012.2
20260504202004 80 210 5.2 11.3 0.00 0.00 0.00 44 1012.2
20260504201503 80 138 4.3 11.3 0.00 0.00 0.00 45 1012.3
20260504201003 80 216 2.6 9.6 0.00 0.00 0.00 44 1012.4
20260504200524 80 247 3.5 9.6 0.00 0.00 0.00 44 1012.5
20260504200003 80 221 2.6 8.7 0.00 0.00 0.00 45 1012.6
20260504195503 80 236 3.5 9.6 0.00 0.00 0.00 45 1012.7
20260504195003 80 214 3.5 9.6 0.00 0.00 0.00 43 1012.7
20260504194524 80 120 2.6 7.0 0.00 0.00 0.00 48 1012.7
20260504194003 80 214 2.6 7.0 0.00 0.00 0.00 50 1012.8
20260504193503 79 203 2.6 7.0 0.00 0.00 0.00 47 1012.8
20260504193003 79 145 2.6 7.8 0.00 0.00 0.00 46 1013.1
20260504192503 79 216 3.5 12.2 0.00 0.00 0.00 45 1013.1
20260504192003 78 235 3.5 12.2 0.00 0.00 0.00 48 1013.1
20260504191503 78 162 3.5 10.4 0.00 0.00 0.00 48 1013.2
20260504191003 78 273 2.6 7.0 0.00 0.00 0.00 45 1013.2
20260504190504 78 263 3.5 10.4 0.00 0.00 0.00 46 1013.4
20260504190003 78 251 3.5 12.2 0.00 0.00 0.00 45 1013.6
20260504185503 78 108 3.5 12.2 0.00 0.00 0.00 44 1013.7
20260504185003 79 234 2.6 11.3 0.00 0.00 0.00 47 1013.7
20260504184503 78 195 3.5 8.7 0.00 0.00 0.00 48 1013.7
20260504184003 78 238 4.3 11.3 0.00 0.00 0.00 45 1013.8
20260504183504 77 253 5.2 11.3 0.00 0.00 0.00 49 1013.8
20260504183003 78 223 3.5 10.4 0.00 0.00 0.00 48 1014.0
20260504182503 78 163 4.3 10.4 0.00 0.00 0.00 50 1014.0
20260504182003 78 169 5.2 11.3 0.00 0.00 0.00 45 1014.2
20260504181503 78 135 4.3 11.3 0.00 0.00 0.00 51 1014.1
20260504181003 77 132 3.5 11.3 0.00 0.00 0.00 47 1014.3
20260504180524 77 252 3.5 8.7 0.00 0.00 0.00 49 1014.5
20260504180003 76 251 3.5 11.3 0.00 0.00 0.00 50 1014.8
20260504175503 77 252 3.5 11.3 0.00 0.00 0.00 50 1014.8
20260504175003 76 198 3.5 10.4 0.00 0.00 0.00 51 1014.9
20260504174503 77 116 4.3 10.4 0.00 0.00 0.00 53 1014.9
20260504174003 76 110 4.3 10.4 0.00 0.00 0.00 54 1014.9
20260504173524 76 116 5.2 16.5 0.00 0.00 0.00 49 1015.0
20260504173003 76 127 5.2 16.5 0.00 0.00 0.00 50 1014.9
20260504172503 75 143 5.2 13.0 0.00 0.00 0.00 51 1014.9
20260504172003 76 131 5.2 13.0 0.00 0.00 0.00 51 1014.9
20260504171503 75 137 4.3 13.9 0.00 0.00 0.00 51 1015.1
20260504171003 75 218 4.3 13.9 0.00 0.00 0.00 50 1015.2
20260504170525 75 225 3.5 13.9 0.00 0.00 0.00 53 1015.3
20260504151003 71 138 2.6 7.8 0.00 0.00 0.00 67 1015.8
20260504150524 71 160 3.5 7.8 0.00 0.00 0.00 66 1016.0